Погода в Фергане

Погода в Фергане : погода сейчас, прогноз погоды и архив. Всё, что Вы хотите узнать о погоде в Фергане!

Поиск расширенной информации на нашем сайте:

Другие новости

Новости СМИ2

Главная страница сайта

Новости сайта

03.07.2017

Напоминаем, что на нашем специализированном сайте Метеоцентр.Азия вы можете получить высокодетализированные автоматические прогнозы погоды по пунктам России, СНГ и мира в авиационном формате (включающие направление и скорость ветра, видимость, явления погоды, количество и форму облачности, нижнюю и верхнюю границу облачности).


Погода в Фергане - сегодня

Время (UTC), дата Ветер
(°,м/с) 
Видим.   Явления Облачность Т
(°С)
Тd
(°С)
f(%) Тe
(°С)
Pmin
(гПа)
dP
(гПа)
Po
(мм)
O2
(г/м3)
Тmin Tmax R s Состояние
почвы
12 16.04.18 350 (С) 10 км  {ливн. осадки}  10/3 1000 м средняя, верхняя 
[Sc|Ac trans|Ci fib]
+18.1 +12 68 +25  1015.6  -0.2  713  267           
15 16.04.18 360 (С) н/о    10/6 600 м кучево-дожд., средняя 
[Cb cap|Ac und]
+16.2 +12.4 78 +24  1016.1  713  269    +19.3       
18 16.04.18 тихо ()   н/о    3/0 верхняя 
[Ci fib]
+13.8 +12.3 91 +19  1015.9  -0.7  712  271    +19.3  0.0     
21 16.04.18 тихо ()   н/о    ясно 
+11.1 +10.5 96 +14  1015.4  -1.2  711  273           
00 17.04.18 180 (Ю) н/о    5/0 верхняя 
[Ci fib]
+11.1 +10.7 97 +15  1014.2  -1.1  710  273           
03 17.04.18 150 (ЮВ) 20000 м    10/0 средняя, верхняя 
[Ac trans|Ci fib]
+14.1 +11.7 85 +20  1012.6  -0.7  710  270           
06 17.04.18 340 (С) 10 км    10/3 1000 м средняя, верхняя 
[Sc|Ac cuf|Ci sp]
+17.6 +11 65 +22  1011.6  -0.3  710  266  +10.5         
09 17.04.18 280 (З) 10 км    10/0 средняя, верхняя 
[Ac lent|Ci ing]
+20.3 +10.7 54 +24  1009.3  -1.5  708  264           
12 17.04.18 270 (З) 10 км    10/3 1000 м средняя, верхняя 
[Sc|Ac trans|Ci fib]
+20.5 +9.3 49 +22  1009.4  0.1  708  264           
15 17.04.18 280 (З) н/о    10/8 1000 м средняя 
[Sc|Ac und]
+12.9 +4.1 55 +12  1014.2  2.8  711  273    +21.3       
18 17.04.18 240 (ЮЗ) н/о    10/8 1000 м средняя 
[Sc|Ac und]
+12.3 +3 53 +12  1016.8  2.2  712  274    +21.3       
21 17.04.18 260 (З) н/о    10/8 1000 м средняя 
[Sc|Ac und]
+11.6 +2.1 52 +11  1017.8  0.8  713  275           
00 18.04.18 250 (З) н/о    10/6 1000 м средняя 
[Sc|Ac As]
+10.8 +2 54 +10  1020.2  714  276           
03 18.04.18 тихо ()   10 км  слаб. ливневой дождь  10/8 600 м кучево-дожд., средняя 
[Cb cap|Ac und]
+7.7 +5 83 +8  1023.4  2.2  716  280  +7.5         
06 18.04.18 350 (С) 10 км  слаб. ливневой дождь  10/8 600 м кучево-дожд., средняя 
[Cb cap|Ac und]
+9.4 +6.8 84 +9  1023.7  0.8  717  278  +7.5    0.6     
09 18.04.18 тихо ()   10 км  слаб. дождь{ливн. осадки}  10/8 600 м средняя 
[Frnb|Ac und]
+9.9 +7.1 83 +10  1023.3  -0.2  716  277           
12 18.04.18 360 (С) 10 км  слаб. дождь{ливн. осадки}  10/6 600 м средняя 
[Sc|Ac und]
+8.8 +6.4 85 +9  1024.4  0.7  717  279           
18 18.04.18 150 (ЮВ) н/о  {дождь}  10/6 1000 м средняя 
[Sc|Ac trans]
+8.3 +5.9 85 +9  1024.4  -0.4  717  279    +10  0.8     
21 18.04.18 тихо ()   н/о    10/6 1000 м средняя 
[Sc|Ac trans]
+8.5 +7 90 +9  1023.6  -0.7  716  279           
00 19.04.18 тихо ()   н/о    10/4 1000 м средняя 
[Sc|Ac As]
+8 +6.7 91 +8  1022.3  -1.4  715  279           
03 19.04.18 тихо ()   10 км    10/0 средняя 
[Sc|Ac As]
+8.9 +8.2 95 +9  1021.3  -0.6  715  277           
06 19.04.18 360 (С) 10 км    10/8 1000 м кучево-дожд., средняя 
[Cb cap|Ac und]
+10.3 +6.2 76 +11  1021  715  276  +7.8         
09 19.04.18 010 (С) 10 км    10/6 1000 м средняя 
[Cu med, cong|Ac und]
+12.1 +6.7 70 +13  1019.4  -1.1  714  274           
12 19.04.18 360 (С) 10 км    10/3 1000 м средняя 
[Cu hum|Ac As]
+13 +5.6 61 +14  1018.4  -0.7  713  273           
15 19.04.18 тихо ()   н/о    6/0 верхняя 
[Cs]
+9 +6.4 84 +9  1019.5  0.1  714  277    +13.2       
Время (UTC), дата Ветер
(°,м/с) 
Видим.   Явления Облачность Т
(°С)
Тd
(°С)
f(%) Тe
(°С)
Pmin
(гПа)
dP
(гПа)
Po
(мм)
O2
(г/м3)
Тmin Tmax R s Состояние
почвы

Для получения пояснительной информации подведите курсор к названию столбца.

ПОГОДА в Фергане - архив

Всё, что Вы хотите узнать о погоде в Фергане - удобно и подробно!

Выберите нужную дату (начиная с 1 января 2015* года) и нажмите кнопку "Найти".
Будут отображены архивные сводки погоды по пункту Фергана, начиная с указанной даты.


Отображать данные в формате CSV (для использования в таблицах Excel)


Внимание! Наш архив погоды предназначен исключительно для личного некоммерческого использования в познавательных целях. Если Вам необходимы официальные справки о состоянии погоды (для производственных, юридических, коммерческих и т.п. целей), обращайтесь в органы Росгидромета.

*Примечание: данная дата относится к архиву по метеостанциям СССР (Россия, СНГ, Балтия).
Архив по метеостанциям Зарубежной Европы и Азии (кроме Китая) хранится 10 дней, по другим регионам земного шара (Китай, Африка, Америка, Австралия, Океания) - 1 день.

Фергана - район местоположения метеостанции


Название, широта, долгота, высота метеостанции:
Фергана 40.4°ш. 71.8°д. 605 м над ур. моря [Узбекистан]

Дополнительная информация

В oтличие oт бoльшинства пoгoдных сайтoв мы публикуем пoдрoбную метеoинфoрмацию в детальнoм прoфессиoнальнoм фoрмате.

Характеристики температуры и влажнoсти вoздуха измеряются на высoте 2 м в тени вдали oт зданий и деревьев.
Скoрoсть ветра измеряется на высoте 10 м (на урoвне рoста челoвека скoрoсть ветра ниже в 1.5-2 раза). Если метеoстанция нахoдится в гoрoде или в лесу, тo скoрoсть ветра занижена на 2-4 м/с пo сравнению с oткрытым местoм. Скoрoсть ветра над акватoриями крупных рек и oзёр, а также на вершинах хoлмoв на 2-5 м/с выше, чем в oбычных услoвиях.
Атмoсфернoе давление в разных тoчках местнoсти мoжет значительнo oтличаться oт давления на метеoстанции, в зависимoсти oт услoвий рельефа (при пoдъёме на 10 м давление пoнижается примернo на 1 мм рт.ст.).